Location: Hochstatterhof
(48.7256°N, 10.3487°E)
Time: 01:35:27
(UTC+00:00)

Cosmos 1680 Rocket - Pass Details

Date: 26 September 2023
Orbit: 758 x 779 km, 74.1° (Epoch: 04 December)

Event Time Altitude Azimuth Distance (km) Brightness Sun altitude
Rises 02:18:19 0° 336° (NNW) 3,274 6.9 -27.6°
Reaches altitude 10° 02:20:43 10° 337° (NNW) 2,343 6.1 -27.3°
Maximum altitude 02:26:04 88° 64° (ENE) 788 3.4 -26.6°
Enters shadow 02:27:24 53° 155° (SSE) 959 3.8 -26.4°
Exits shadow 02:32:56 - 158° (SSE) 2,933 6.4 -25.6°
Sets 02:33:44 0° 158° (SSE) 3,248 6.7 -25.5°
